Weather in Mari-Bilyamor

Russia / Mari El Republic     56°50′28″N   49°54′05″E
temp.,
°C
wind,
m/s
gust,
m/s
humid.,
%
clouds,
%
prec.,
mm/h
press.,
hPa
HPBL,
m
3 march, wed
wed300:00−3w489586 0.1 998309
03:00−6wsw379791 0.2 998154
06:00−4w379794 0.4 998240
09:00−4nw599497 0.9 999476
12:00−4nw71093100 0.6 1000662
15:00−5nw71087100 0.7 1001756
18:00−6wnw51191100 0.1 1002665
21:00−8w5129299 0.1 1003466
4 march, thu
thu400:00−9wsw489398 0.1 1001183
03:00−8sw5109499 0.2 1000351
06:00−6sw51192100 0.5 997415
09:00−3sw71291100 0.6 995738
12:00−1sw71195100 0.5 991863
15:000wsw91590100 2.6 9891394
18:00−4w7168732 0.2 990707
21:00−5w6139230 0.2 994447
5 march, fri
fri500:00−6wnw5119395 0.1 996398
03:00−12wnw359692 0.1 99993
06:00−15wnw349675 0.0 100149
09:00−14nw469045 0.0 1002252
12:00−12nw46870 0.0 1003435
15:00−11nw58876 0.0 1005510
18:00−15wnw349426 0.0 100762
21:00−15w349620 0.0 101060
6 march, sat
sat600:00−13wsw369668 0.1 1010112
03:00−14wsw369674 0.1 1011111
06:00−16sw369872 0.0 1011104
09:00−12sw369583 0.1 1011238
12:00−8sw349198 0.2 1011362
15:00−8sw239199 0.3 1009363
18:00−11wsw1296100 0.3 100930
21:00−13nnw3796100 0.8 1010209
7 march, sun
sun700:00−18nw339791 0.1 100939
03:00−21wnw339953 0.1 101037
06:00−22wsw33996 0.0 101035
09:00−17sw369535 0.0 1010232
12:00−12ssw579182 0.0 1008424
15:00−12s7119191 0.0 1005513
18:00−11s71491100 0.4 1002883
21:00−9s81492100 0.9 999837